Home > Weather > Husum > Past weeks

Flag for Germany Weather for the Past 2 Weeks in Husum, Schleswig-Holstein, Germany

Now
48 °F

Cool.


Feels Like: 43 °F
Forecast: 42 / 47 °F
Wind: 12 mph from South

Location: Schleswig-Jagel

Current Time: Feb 6, 2016 at 1:41:13 PM

Latest Report: Feb 6, 2016 at 12:20 PM


Visibility: 3 mi

Pressure: 29.77 "Hg

Humidity: 87%

Dew point: 45 °F

Location of HusumLocation

Historic Weather in Husum — Graph

°F

Husum Temperature Yesterday

Maximum temperature yesterday: 45 °F (at 5:20 PM)
Minimum temperature yesterday: 32 °F (at 12:20 AM)
Average temperature yesterday: 40 °F

High & Low Weather Summary for the Past Weeks

 TemperatureHumidityPressure
High52 °F (Jan 27, 8:20 PM)100% (Jan 22, 3:20 PM)30.42 "Hg (Jan 22, 3:20 PM)
Low23 °F (Jan 22, 5:20 PM)70% (Jan 30, 11:20 PM)29.47 "Hg (Jan 30, 2:20 PM)
Average42 °F89%29.89 "Hg
* Reported Jan 22 12:20 PM — Feb 6 12:20 PM, Husum, Weather by CustomWeather, © 2016

Note: Actual official high and low records may vary slightly from our data, if they occured in-between our weather recording intervals... More about our weather records

Advertising

Husum Weather History for the Previous 24 Hours

 ConditionsComfort  
Time TempWeatherWind HumidityBarometerVisibility
12:20 PM
Sat, Feb 6
48 °FCool.12 mph87%29.77 "Hg3 mi
11:20 AM46 °FCool.13 mph93%29.80 "Hg2 mi
10:20 AM46 °FCool.13 mph93%29.80 "Hg2 mi
9:20 AM46 °FCool.16 mph93%29.80 "Hg3 mi
8:20 AM46 °FCool.15 mph93%29.80 "Hg2 mi
7:20 AM46 °FCool.14 mph93%29.83 "Hg3 mi
6:20 AM46 °FCool.10 mph93%29.83 "Hg2 mi
5:20 AM46 °FCool.12 mph93%29.86 "Hg2 mi
4:20 AM46 °FCool.12 mph93%29.89 "Hg2 mi
3:20 AM46 °FCool.10 mph87%29.89 "Hg2 mi
2:20 AM46 °FCool.12 mph87%29.92 "Hg2 mi
1:20 AM46 °FCool.12 mph93%29.92 "Hg2 mi
12:20 AM46 °FCool.13 mph93%29.95 "Hg2 mi
11:20 PM
Fri, Feb 5
45 °FQuite cool.12 mph100%29.95 "Hg2 mi
10:20 PM45 °FQuite cool.12 mph93%29.98 "Hg2 mi
9:20 PM45 °FQuite cool.12 mph93%29.98 "Hg2 mi
8:20 PM45 °FQuite cool.13 mph93%29.98 "Hg2 mi
7:20 PM45 °FQuite cool.15 mph93%29.98 "Hg2 mi
6:20 PM45 °FQuite cool.16 mph93%29.98 "Hg2 mi
5:20 PM45 °FQuite cool.17 mph93%29.98 "Hg2 mi
4:20 PM43 °FQuite cool.14 mph100%29.98 "Hg1 mi
3:20 PM43 °FQuite cool.14 mph93%29.98 "Hg1 mi
2:20 PM41 °FQuite cool.13 mph93%30.01 "Hg1 mi
1:20 PM39 °FChilly.12 mph93%30.04 "Hg1 mi
Weather by CustomWeather, © 2016

See weather overviewHow to use our weather pages